User: anonymous   Login
Location: Unspecified
(0.0000°N, 0.0000°E)
Time: 14:25:43
(UTC+01:00)
Language:

GP-B - Orbit

View from above orbital plane
View from above orbital plane
View from above satellite
View from above satellite

Ground track
Ground track

The orbit data is extracted from the following two-line orbital elements,

1 28230U 04014A   18023.18403798  .00000122  00000-0  14398-4 0  9992
2 28230  89.8420 117.7365 0003350  93.3251 266.8355 14.78596285741600
Epoch (UTC): 23 January 2018 04:25:00
Eccentricity: 0.0003350
inclination: 89.8420°
perigee height: 631 km
apogee height: 636 km
right ascension of ascending node: 117.7365°
argument of perigee: 93.3251°
revolutions per day: 14.78596285
mean anomaly at epoch: 266.8355°
orbit number at epoch: 74160

The dashed part of the orbit path shows where the satellite is in the earth's shadow,  

DLR